EA7RX-13 Weather Reports


Display with metric or nautical units.
time (UTC)temp
F
wind
direction
speed
MPH
gust
MPH
rain 1hr
in
rain 24hr
in
rain mn
in
humidity
%
barometer
mb
20260902080631 82 0.0 0.0 0.00 0.00 0.00 70 1018.5
20260902075631 81 0.0 0.0 0.00 0.00 0.00 74 1018.6
20260902074631 80 0.0 0.0 0.00 0.00 0.00 78 1018.6
20260902073631 79 0.0 0.0 0.00 0.00 0.00 88 1018.6
20260902072631 78 0.0 0.0 0.00 0.00 0.00 87 1018.7
20260902071631 78 0.0 0.0 0.00 0.00 0.00 92 1018.7
20260902070631 76 0.0 0.0 0.00 0.00 0.00 10 1018.8
20260902065631 76 0.0 0.0 0.00 0.00 0.00 10 1018.7
20260902064631 75 0.0 0.0 0.00 0.00 0.00 10 1018.7
20260902063631 75 0.0 0.0 0.00 0.00 0.00 10 1018.4
20260902062631 74 0.0 0.0 0.00 0.00 0.00 10 1018.5
20260902061631 74 0.0 0.0 0.00 0.00 0.00 10 1018.4
20260902060631 74 0.0 0.0 0.00 0.00 0.00 10 1018.3
20260902055631 74 0.0 0.0 0.00 0.00 0.00 10 1018.3
20260902054631 74 0.0 0.0 0.00 0.00 0.00 10 1018.3
20260902053631 75 0.0 0.0 0.00 0.00 0.00 10 1018.2
20260902052631 75 0.0 0.0 0.00 0.00 0.00 10 1018.1
20260902051631 75 0.0 0.0 0.00 0.00 0.00 99 1018.1
20260902050631 75 0.0 0.0 0.00 0.00 0.00 10 1018.1
20260902045631 75 0.0 0.0 0.00 0.00 0.00 10 1018.0
20260902044631 76 0.0 0.0 0.00 0.00 0.00 10 1017.8
20260902043631 76 0.0 0.0 0.00 0.00 0.00 93 1017.7
20260902042631 76 0.0 0.0 0.00 0.00 0.00 99 1017.7
20260902041631 76 0.0 0.0 0.00 0.00 0.00 92 1017.6
20260902040631 77 0.0 0.0 0.00 0.00 0.00 91 1017.6
20260902035631 77 0.0 0.0 0.00 0.00 0.00 88 1017.6
20260902034631 77 0.0 0.0 0.00 0.00 0.00 88 1017.6
20260902033631 77 0.0 0.0 0.00 0.00 0.00 85 1017.7
20260902032631 77 0.0 0.0 0.00 0.00 0.00 88 1017.7
20260902031631 78 0.0 0.0 0.00 0.00 0.00 85 1017.8
20260902030631 78 0.0 0.0 0.00 0.00 0.00 77 1017.8
20260902025631 78 0.0 0.0 0.00 0.00 0.00 83 1017.6
20260902024631 79 0.0 0.0 0.00 0.00 0.00 79 1017.6
20260902023631 79 0.0 0.0 0.00 0.00 0.00 77 1017.2
20260902022631 80 0.0 0.0 0.00 0.00 0.00 76 1017.3
20260902021631 79 0.0 0.0 0.00 0.00 0.00 87 1017.3
20260902020631 79 0.0 0.0 0.00 0.00 0.00 87 1017.2
20260902015631 80 0.0 0.0 0.00 0.00 0.00 79 1017.2
20260902014631 80 0.0 0.0 0.00 0.00 0.00 76 1017.3
20260902013631 80 0.0 0.0 0.00 0.00 0.00 77 1017.2
20260902012631 81 0.0 0.0 0.00 0.00 0.00 70 1017.2
20260902011631 82 0.0 0.0 0.00 0.00 0.00 69 1017.1
20260902010631 82 0.0 0.0 0.00 0.00 0.00 67 1017.1
20260902005631 83 0.0 0.0 0.00 0.00 0.00 64 1017.1
20260902004631 83 0.0 0.0 0.00 0.00 0.00 63 1017.1
20260902003631 83 0.0 0.0 0.00 0.00 0.00 66 1017.2
20260902002631 83 0.0 0.0 0.00 0.00 0.00 68 1017.2
20260902001631 84 0.0 0.0 0.00 0.00 0.00 66 1017.1
20260902000631 83 0.0 0.0 0.00 0.00 0.00 64 1017.1
20260901235631 83 0.0 0.0 0.00 0.00 0.00 59 1017.2
20260901234631 83 0.0 0.0 0.00 0.00 0.00 58 1016.9
20260901233631 84 0.0 0.0 0.00 0.00 0.00 54 1016.7
20260901232631 85 0.0 0.0 0.00 0.00 0.00 50 1016.6
20260901231630 85 0.0 0.0 0.00 0.00 0.00 49 1016.6
20260901230631 83 0.0 0.0 0.00 0.00 0.00 59 1016.7
20260901225630 85 0.0 0.0 0.00 0.00 0.00 54 1016.5
20260901224630 86 0.0 0.0 0.00 0.00 0.00 50 1016.2
20260901223630 87 0.0 0.0 0.00 0.00 0.00 48 1016.0
20260901222631 86 0.0 0.0 0.00 0.00 0.00 52 1016.1
20260901221630 84 0.0 0.0 0.00 0.00 0.00 58 1016.4
20260901220630 84 0.0 0.0 0.00 0.00 0.00 57 1016.3
20260901215630 84 0.0 0.0 0.00 0.00 0.00 57 1016.1
20260901214630 85 0.0 0.0 0.00 0.00 0.00 54 1016.0
20260901213630 85 0.0 0.0 0.00 0.00 0.00 61 1015.9
20260901212630 85 0.0 0.0 0.00 0.00 0.00 58 1015.8
20260901211630 85 0.0 0.0 0.00 0.00 0.00 58 1015.9
20260901210630 86 0.0 0.0 0.00 0.00 0.00 56 1015.6
20260901205630 85 0.0 0.0 0.00 0.00 0.00 55 1015.6
20260901204630 85 0.0 0.0 0.00 0.00 0.00 56 1015.5
20260901203630 86 0.0 0.0 0.00 0.00 0.00 56 1015.2
20260901202630 85 0.0 0.0 0.00 0.00 0.00 58 1015.2
20260901201630 86 0.0 0.0 0.00 0.00 0.00 56 1014.9
20260901200630 86 0.0 0.0 0.00 0.00 0.00 56 1014.7
20260901195630 87 0.0 0.0 0.00 0.00 0.00 52 1014.4
20260901194630 88 0.0 0.0 0.00 0.00 0.00 51 1014.2
20260901193630 87 0.0 0.0 0.00 0.00 0.00 51 1014.0
20260901192630 88 0.0 0.0 0.00 0.00 0.00 49 1013.7
20260901191630 89 0.0 0.0 0.00 0.00 0.00 48 1013.5
20260901190630 90 0.0 0.0 0.00 0.00 0.00 45 1013.3
20260901185630 90 0.0 0.0 0.00 0.00 0.00 44 1013.1
20260901184630 92 0.0 0.0 0.00 0.00 0.00 41 1012.9
20260901183630 93 0.0 0.0 0.00 0.00 0.00 39 1012.6
20260901182630 94 0.0 0.0 0.00 0.00 0.00 38 1012.6
20260901181630 94 0.0 0.0 0.00 0.00 0.00 35 1012.4
20260901180630 95 0.0 0.0 0.00 0.00 0.00 34 1012.4
20260901175630 96 0.0 0.0 0.00 0.00 0.00 33 1012.2
20260901174630 97 0.0 0.0 0.00 0.00 0.00 32 1012.1
20260901173630 98 0.0 0.0 0.00 0.00 0.00 31 1012.1
20260901172630 99 0.0 0.0 0.00 0.00 0.00 31 1011.9
20260901171630 99 0.0 0.0 0.00 0.00 0.00 31 1012.0
20260901170630 98 0.0 0.0 0.00 0.00 0.00 31 1012.0
20260901165630 100 0.0 0.0 0.00 0.00 0.00 30 1011.9
20260901164630 100 0.0 0.0 0.00 0.00 0.00 31 1011.7
20260901163630 100 0.0 0.0 0.00 0.00 0.00 30 1011.7
20260901162630 100 0.0 0.0 0.00 0.00 0.00 30 1011.6
20260901161630 100 0.0 0.0 0.00 0.00 0.00 30 1011.5
20260901160630 100 0.0 0.0 0.00 0.00 0.00 30 1011.6
20260901155630 102 0.0 0.0 0.00 0.00 0.00 29 1011.4
20260901154630 101 0.0 0.0 0.00 0.00 0.00 29 1011.4
20260901153630 101 0.0 0.0 0.00 0.00 0.00 30 1011.5
20260901152630 100 0.0 0.0 0.00 0.00 0.00 30 1011.6
20260901151630 101 0.0 0.0 0.00 0.00 0.00 30 1011.5
20260901150630 102 0.0 0.0 0.00 0.00 0.00 29 1011.7
20260901145630 102 0.0 0.0 0.00 0.00 0.00 29 1011.9
20260901144630 100 0.0 0.0 0.00 0.00 0.00 30 1012.0
20260901143630 104 0.0 0.0 0.00 0.00 0.00 30 1011.6
20260901142630 103 0.0 0.0 0.00 0.00 0.00 30 1011.9
20260901141630 103 0.0 0.0 0.00 0.00 0.00 29 1012.0
20260901140630 102 0.0 0.0 0.00 0.00 0.00 30 1012.2
20260901135630 101 0.0 0.0 0.00 0.00 0.00 30 1012.4
20260901134630 101 0.0 0.0 0.00 0.00 0.00 31 1012.5
20260901133630 101 0.0 0.0 0.00 0.00 0.00 31 1012.8
20260901132630 102 0.0 0.0 0.00 0.00 0.00 31 1012.8
20260901131630 102 0.0 0.0 0.00 0.00 0.00 32 1012.9
20260901130630 101 0.0 0.0 0.00 0.00 0.00 33 1013.1
20260901125630 100 0.0 0.0 0.00 0.00 0.00 35 1013.1
20260901124630 100 0.0 0.0 0.00 0.00 0.00 34 1013.3
20260901123630 97 0.0 0.0 0.00 0.00 0.00 36 1013.6
20260901122630 98 0.0 0.0 0.00 0.00 0.00 35 1013.6
20260901121630 99 0.0 0.0 0.00 0.00 0.00 36 1013.6
20260901120630 98 0.0 0.0 0.00 0.00 0.00 36 1013.7
20260901115652 97 0.0 0.0 0.00 0.00 0.00 37 1014.0
20260901112631 95 0.0 0.0 0.00 0.00 0.00 38 1014.5
20260901111630 94 0.0 0.0 0.00 0.00 0.00 39 1014.6
20260901110630 94 0.0 0.0 0.00 0.00 0.00 38 1014.7
20260901105630 94 0.0 0.0 0.00 0.00 0.00 39 1014.9
20260901104630 92 0.0 0.0 0.00 0.00 0.00 40 1015.1
20260901103630 91 0.0 0.0 0.00 0.00 0.00 39 1015.3
20260901102630 89 0.0 0.0 0.00 0.00 0.00 40 1015.4
20260901101630 88 0.0 0.0 0.00 0.00 0.00 42 1015.6
20260901100630 88 0.0 0.0 0.00 0.00 0.00 41 1015.8
20260901095630 88 0.0 0.0 0.00 0.00 0.00 43 1015.9
20260901094630 87 0.0 0.0 0.00 0.00 0.00 44 1016.1
20260901093630 86 0.0 0.0 0.00 0.00 0.00 44 1016.2
20260901092630 86 0.0 0.0 0.00 0.00 0.00 44 1016.1
20260901091630 85 0.0 0.0 0.00 0.00 0.00 44 1016.3
20260901090630 85 0.0 0.0 0.00 0.00 0.00 44 1016.2
20260901085630 84 0.0 0.0 0.00 0.00 0.00 44 1016.3
20260901084630 84 0.0 0.0 0.00 0.00 0.00 43 1016.3
20260901083630 83 0.0 0.0 0.00 0.00 0.00 50 1016.2
20260901082630 82 0.0 0.0 0.00 0.00 0.00 49 1016.2
20260901081630 80 0.0 0.0 0.00 0.00 0.00 52 1016.4